Time,TemperatureF,DewpointF,PressureIn,WindDirection,WindDirectionDegrees,WindSpeedMPH,WindSpeedGustMPH,Humidity,HourlyPrecipIn,Conditions,Clouds,dailyrainin,SoftwareType,DateUTC
2013-04-06 00:02:00,44.0,24.0,-100.00,NW,320,20.0,27.0,44,-99.99,,,-99.99,,2013-04-06 04:02:00,
2013-04-06 00:12:00,44.0,24.0,-100.00,NW,320,18.0,22.0,44,-99.99,,,-99.99,,2013-04-06 04:12:00,
2013-04-06 00:22:00,44.0,24.0,-100.00,NW,320,18.0,22.0,44,-99.99,,,-99.99,,2013-04-06 04:22:00,
2013-04-06 00:32:00,44.0,24.0,-100.00,NW,320,18.0,22.0,44,-99.99,,,-99.99,,2013-04-06 04:32:00,
2013-04-06 00:42:00,44.0,24.0,-100.00,NW,320,18.0,22.0,44,-99.99,,,-99.99,,2013-04-06 04:42:00,
2013-04-06 00:52:00,43.0,24.0,-100.00,NW,310,18.0,25.0,46,-99.99,,,-99.99,,2013-04-06 04:52:00,
2013-04-06 01:01:00,43.0,24.0,-100.00,NW,310,18.0,25.0,46,-99.99,,,-99.99,,2013-04-06 05:01:00,
2013-04-06 01:11:00,42.0,22.0,-100.00,NW,320,20.0,27.0,44,-99.99,,,-99.99,,2013-04-06 05:11:00,
2013-04-06 01:21:00,42.0,22.0,-100.00,NW,320,20.0,27.0,44,-99.99,,,-99.99,,2013-04-06 05:21:00,
2013-04-06 01:32:00,42.0,22.0,-100.00,NW,320,20.0,27.0,44,-99.99,,,-99.99,,2013-04-06 05:32:00,
2013-04-06 01:42:00,42.0,22.0,-100.00,NW,310,22.0,27.0,45,-99.99,,,-99.99,,2013-04-06 05:42:00,
2013-04-06 01:51:00,42.0,22.0,-100.00,NW,310,22.0,27.0,45,-99.99,,,-99.99,,2013-04-06 05:51:00,
2013-04-06 02:02:00,42.0,22.0,-100.00,NW,310,22.0,27.0,45,-99.99,,,-99.99,,2013-04-06 06:02:00,
2013-04-06 02:21:00,41.0,22.0,-100.00,NW,320,18.0,25.0,46,-99.99,,,-99.99,,2013-04-06 06:21:00,
2013-04-06 02:32:00,41.0,22.0,-100.00,NW,320,18.0,25.0,46,-99.99,,,-99.99,,2013-04-06 06:32:00,
2013-04-06 02:42:00,41.0,22.0,-100.00,NW,320,18.0,25.0,46,-99.99,,,-99.99,,2013-04-06 06:42:00,
2013-04-06 02:51:00,40.0,20.0,-100.00,NW,310,16.0,22.0,43,-99.99,,,-99.99,,2013-04-06 06:51:00,
2013-04-06 03:01:00,40.0,20.0,-100.00,NW,310,16.0,22.0,43,-99.99,,,-99.99,,2013-04-06 07:01:00,
2013-04-06 03:21:00,40.0,20.0,-100.00,NW,310,18.0,22.0,44,-99.99,,,-99.99,,2013-04-06 07:21:00,
2013-04-06 03:31:00,40.0,20.0,-100.00,NW,310,18.0,22.0,44,-99.99,,,-99.99,,2013-04-06 07:31:00,
2013-04-06 03:42:00,40.0,21.0,-100.00,NW,310,16.0,20.0,46,-99.99,,,-99.99,,2013-04-06 07:42:00,
2013-04-06 03:52:00,40.0,21.0,-100.00,NW,310,16.0,20.0,46,-99.99,,,-99.99,,2013-04-06 07:52:00,
2013-04-06 04:01:00,40.0,21.0,-100.00,NW,310,16.0,20.0,46,-99.99,,,-99.99,,2013-04-06 08:01:00,
2013-04-06 04:11:00,39.0,20.0,-100.00,NW,310,16.0,18.0,46,-99.99,,,-99.99,,2013-04-06 08:11:00,
2013-04-06 04:31:00,39.0,20.0,-100.00,NW,310,16.0,18.0,46,-99.99,,,-99.99,,2013-04-06 08:31:00,
2013-04-06 04:42:00,39.0,21.0,-100.00,NW,310,13.0,18.0,48,-99.99,,,-99.99,,2013-04-06 08:42:00,
2013-04-06 04:51:00,39.0,21.0,-100.00,NW,310,13.0,18.0,48,-99.99,,,-99.99,,2013-04-06 08:51:00,
2013-04-06 05:01:00,39.0,21.0,-100.00,NW,310,13.0,18.0,48,-99.99,,,-99.99,,2013-04-06 09:01:00,
2013-04-06 05:21:00,38.0,19.0,-100.00,NW,310,13.0,18.0,46,-99.99,,,-99.99,,2013-04-06 09:21:00,
2013-04-06 05:32:00,38.0,19.0,-100.00,NW,310,13.0,18.0,46,-99.99,,,-99.99,,2013-04-06 09:32:00,
2013-04-06 05:42:00,38.0,19.0,-100.00,NW,310,13.0,18.0,46,-99.99,,,-99.99,,2013-04-06 09:42:00,
2013-04-06 05:52:00,38.0,21.0,-100.00,NW,310,11.0,16.0,49,-99.99,,,-99.99,,2013-04-06 09:52:00,
2013-04-06 06:02:00,38.0,21.0,-100.00,NW,310,11.0,16.0,49,-99.99,,,-99.99,,2013-04-06 10:02:00,
2013-04-06 06:12:00,38.0,21.0,-100.00,NW,310,11.0,16.0,49,-99.99,,,-99.99,,2013-04-06 10:12:00,
2013-04-06 06:31:00,38.0,21.0,-100.00,NW,310,13.0,16.0,49,-99.99,,,-99.99,,2013-04-06 10:31:00,
2013-04-06 06:42:00,38.0,21.0,-100.00,NW,310,13.0,16.0,49,-99.99,,,-99.99,,2013-04-06 10:42:00,
2013-04-06 06:52:00,37.0,20.0,-100.00,NNW,340,13.0,18.0,49,-99.99,,,-99.99,,2013-04-06 10:52:00,
2013-04-06 07:02:00,37.0,20.0,-100.00,NNW,340,13.0,18.0,49,-99.99,,,-99.99,,2013-04-06 11:02:00,
2013-04-06 07:11:00,37.0,22.0,-100.00,North,360,13.0,16.0,54,-99.99,,,-99.99,,2013-04-06 11:11:00,
2013-04-06 07:21:00,37.0,22.0,-100.00,North,360,13.0,16.0,54,-99.99,,,-99.99,,2013-04-06 11:21:00,
2013-04-06 07:32:00,37.0,22.0,-100.00,North,360,13.0,16.0,54,-99.99,,,-99.99,,2013-04-06 11:32:00,
2013-04-06 07:41:00,37.0,20.0,-100.00,North,350,11.0,18.0,51,-99.99,,,-99.99,,2013-04-06 11:41:00,
2013-04-06 07:52:00,37.0,20.0,-100.00,North,350,11.0,18.0,51,-99.99,,,-99.99,,2013-04-06 11:52:00,
2013-04-06 08:01:00,37.0,20.0,-100.00,North,350,11.0,18.0,51,-99.99,,,-99.99,,2013-04-06 12:01:00,
2013-04-06 08:11:00,36.0,17.0,-100.00,North,360,13.0,20.0,45,-99.99,,,-99.99,,2013-04-06 12:11:00,
2013-04-06 08:21:00,36.0,17.0,-100.00,North,360,13.0,20.0,45,-99.99,,,-99.99,,2013-04-06 12:21:00,
2013-04-06 08:32:00,36.0,17.0,-100.00,North,360,13.0,20.0,45,-99.99,,,-99.99,,2013-04-06 12:32:00,
2013-04-06 08:42:00,36.0,17.0,-100.00,North,360,13.0,20.0,45,-99.99,,,-99.99,,2013-04-06 12:42:00,
2013-04-06 08:52:00,36.0,17.0,-100.00,North,10,16.0,22.0,45,-99.99,,,-99.99,,2013-04-06 12:52:00,
2013-04-06 09:02:00,36.0,17.0,-100.00,North,10,16.0,22.0,45,-99.99,,,-99.99,,2013-04-06 13:02:00,
2013-04-06 09:11:00,36.0,15.0,-100.00,North,360,13.0,22.0,42,-99.99,,,-99.99,,2013-04-06 13:11:00,
2013-04-06 09:22:00,36.0,15.0,-100.00,North,360,13.0,22.0,42,-99.99,,,-99.99,,2013-04-06 13:22:00,
2013-04-06 09:32:00,36.0,15.0,-100.00,North,360,13.0,22.0,42,-99.99,,,-99.99,,2013-04-06 13:32:00,
2013-04-06 09:42:00,36.0,13.0,-100.00,North,350,16.0,20.0,38,-99.99,,,-99.99,,2013-04-06 13:42:00,
2013-04-06 09:52:00,36.0,13.0,-100.00,North,350,16.0,20.0,38,-99.99,,,-99.99,,2013-04-06 13:52:00,
2013-04-06 10:02:00,36.0,13.0,-100.00,North,350,16.0,20.0,38,-99.99,,,-99.99,,2013-04-06 14:02:00,
2013-04-06 10:11:00,36.0,13.0,-100.00,North,350,16.0,20.0,38,-99.99,,,-99.99,,2013-04-06 14:11:00,
2013-04-06 10:21:00,36.0,12.0,-100.00,North,10,13.0,20.0,35,-99.99,,,-99.99,,2013-04-06 14:21:00,
2013-04-06 10:31:00,36.0,12.0,-100.00,North,10,13.0,20.0,35,-99.99,,,-99.99,,2013-04-06 14:31:00,
2013-04-06 10:42:00,36.0,12.0,-100.00,North,10,13.0,20.0,35,-99.99,,,-99.99,,2013-04-06 14:42:00,
2013-04-06 10:52:00,37.0,12.0,-100.00,North,360,13.0,20.0,35,-99.99,,,-99.99,,2013-04-06 14:52:00,
2013-04-06 11:01:00,37.0,12.0,-100.00,North,360,13.0,20.0,35,-99.99,,,-99.99,,2013-04-06 15:01:00,
2013-04-06 11:21:00,38.0,11.0,-100.00,North,10,11.0,16.0,32,-99.99,,,-99.99,,2013-04-06 15:21:00,
2013-04-06 11:32:00,38.0,11.0,-100.00,North,10,11.0,16.0,32,-99.99,,,-99.99,,2013-04-06 15:32:00,
2013-04-06 11:42:00,38.0,11.0,-100.00,North,10,11.0,16.0,32,-99.99,,,-99.99,,2013-04-06 15:42:00,
2013-04-06 11:52:00,38.0,9.0,-100.00,North,350,13.0,18.0,29,-99.99,,,-99.99,,2013-04-06 15:52:00,
2013-04-06 12:03:00,38.0,9.0,-100.00,North,350,13.0,18.0,29,-99.99,,,-99.99,,2013-04-06 16:03:00,
2013-04-06 12:15:00,39.0,9.0,-100.00,North,350,11.0,13.0,28,-99.99,,,-99.99,,2013-04-06 16:15:00,
2013-04-06 12:22:00,39.0,9.0,-100.00,North,350,11.0,13.0,28,-99.99,,,-99.99,,2013-04-06 16:22:00,
2013-04-06 12:32:00,39.0,9.0,-100.00,North,350,11.0,13.0,28,-99.99,,,-99.99,,2013-04-06 16:32:00,
2013-04-06 12:41:00,40.0,6.0,-100.00,NNW,340,7.0,11.0,23,-99.99,,,-99.99,,2013-04-06 16:41:00,
2013-04-06 12:52:00,40.0,6.0,-100.00,NNW,340,7.0,11.0,23,-99.99,,,-99.99,,2013-04-06 16:52:00,
2013-04-06 13:01:00,40.0,6.0,-100.00,NNW,340,7.0,11.0,23,-99.99,,,-99.99,,2013-04-06 17:01:00,
2013-04-06 13:11:00,41.0,11.0,-100.00,WNW,300,7.0,13.0,28,-99.99,,,-99.99,,2013-04-06 17:11:00,
2013-04-06 13:21:00,41.0,11.0,-100.00,WNW,300,7.0,13.0,28,-99.99,,,-99.99,,2013-04-06 17:21:00,
2013-04-06 13:32:00,41.0,11.0,-100.00,WNW,300,7.0,13.0,28,-99.99,,,-99.99,,2013-04-06 17:32:00,
2013-04-06 13:42:00,42.0,7.0,-100.00,West,270,2.0,7.0,23,-99.99,,,-99.99,,2013-04-06 17:42:00,
2013-04-06 13:52:00,42.0,7.0,-100.00,West,270,2.0,7.0,23,-99.99,,,-99.99,,2013-04-06 17:52:00,
2013-04-06 14:01:00,42.0,7.0,-100.00,West,270,2.0,7.0,23,-99.99,,,-99.99,,2013-04-06 18:01:00,
2013-04-06 14:11:00,42.0,11.0,-100.00,SSW,200,4.0,7.0,27,-99.99,,,-99.99,,2013-04-06 18:11:00,
2013-04-06 14:21:00,42.0,11.0,-100.00,SSW,200,4.0,7.0,27,-99.99,,,-99.99,,2013-04-06 18:21:00,
2013-04-06 14:31:00,42.0,11.0,-100.00,SSW,200,4.0,7.0,27,-99.99,,,-99.99,,2013-04-06 18:31:00,
2013-04-06 14:42:00,42.0,11.0,-100.00,SSW,200,4.0,7.0,27,-99.99,,,-99.99,,2013-04-06 18:42:00,
2013-04-06 15:02:00,42.0,13.0,-100.00,South,190,9.0,11.0,30,-99.99,,,-99.99,,2013-04-06 19:02:00,
2013-04-06 15:22:00,43.0,14.0,-100.00,South,170,7.0,9.0,30,-99.99,,,-99.99,,2013-04-06 19:22:00,
2013-04-06 15:32:00,43.0,14.0,-100.00,South,170,7.0,9.0,30,-99.99,,,-99.99,,2013-04-06 19:32:00,
2013-04-06 15:41:00,44.0,13.0,-100.00,South,170,7.0,9.0,28,-99.99,,,-99.99,,2013-04-06 19:41:00,
2013-04-06 15:52:00,44.0,13.0,-100.00,South,170,7.0,9.0,28,-99.99,,,-99.99,,2013-04-06 19:52:00,
2013-04-06 16:02:00,44.0,13.0,-100.00,South,170,7.0,9.0,28,-99.99,,,-99.99,,2013-04-06 20:02:00,
2013-04-06 16:11:00,45.0,16.0,-100.00,South,180,7.0,9.0,31,-99.99,,,-99.99,,2013-04-06 20:11:00,
2013-04-06 16:21:00,45.0,16.0,-100.00,South,180,7.0,9.0,31,-99.99,,,-99.99,,2013-04-06 20:21:00,
2013-04-06 16:31:00,45.0,16.0,-100.00,South,180,7.0,9.0,31,-99.99,,,-99.99,,2013-04-06 20:31:00,
2013-04-06 16:41:00,45.0,22.0,-100.00,SSW,200,7.0,9.0,39,-99.99,,,-99.99,,2013-04-06 20:41:00,
2013-04-06 16:52:00,45.0,22.0,-100.00,SSW,200,7.0,9.0,39,-99.99,,,-99.99,,2013-04-06 20:52:00,
2013-04-06 17:12:00,46.0,23.0,-100.00,SSW,200,7.0,9.0,39,-99.99,,,-99.99,,2013-04-06 21:12:00,
2013-04-06 17:21:00,46.0,23.0,-100.00,SSW,200,7.0,9.0,39,-99.99,,,-99.99,,2013-04-06 21:21:00,
2013-04-06 17:32:00,46.0,23.0,-100.00,SSW,200,7.0,9.0,39,-99.99,,,-99.99,,2013-04-06 21:32:00,
2013-04-06 17:42:00,46.0,24.0,-100.00,SSW,200,7.0,9.0,42,-99.99,,,-99.99,,2013-04-06 21:42:00,
2013-04-06 17:52:00,46.0,24.0,-100.00,SSW,200,7.0,9.0,42,-99.99,,,-99.99,,2013-04-06 21:52:00,
2013-04-06 18:02:00,46.0,24.0,-100.00,SSW,200,7.0,9.0,42,-99.99,,,-99.99,,2013-04-06 22:02:00,
2013-04-06 18:12:00,46.0,24.0,-100.00,SSW,200,7.0,9.0,42,-99.99,,,-99.99,,2013-04-06 22:12:00,
2013-04-06 18:22:00,47.0,24.0,-100.00,SSW,200,7.0,9.0,41,-99.99,,,-99.99,,2013-04-06 22:22:00,
2013-04-06 18:33:00,47.0,24.0,-100.00,SSW,200,7.0,9.0,41,-99.99,,,-99.99,,2013-04-06 22:33:00,
2013-04-06 18:52:00,47.0,26.0,-100.00,SSW,200,7.0,11.0,44,-99.99,,,-99.99,,2013-04-06 22:52:00,
2013-04-06 19:12:00,46.0,28.0,-100.00,SSW,200,11.0,13.0,48,-99.99,,,-99.99,,2013-04-06 23:12:00,
2013-04-06 19:22:00,46.0,28.0,-100.00,SSW,200,11.0,13.0,48,-99.99,,,-99.99,,2013-04-06 23:22:00,
2013-04-06 19:32:00,46.0,28.0,-100.00,SSW,200,11.0,13.0,48,-99.99,,,-99.99,,2013-04-06 23:32:00,
2013-04-06 19:52:00,45.0,27.0,-100.00,South,180,11.0,13.0,49,-99.99,,,-99.99,,2013-04-06 23:52:00,
2013-04-06 20:01:00,45.0,27.0,-100.00,South,180,11.0,13.0,49,-99.99,,,-99.99,,2013-04-07 00:01:00,
2013-04-06 20:11:00,44.0,28.0,-100.00,South,180,11.0,16.0,53,-99.99,,,-99.99,,2013-04-07 00:11:00,
2013-04-06 20:21:00,44.0,28.0,-100.00,South,180,11.0,16.0,53,-99.99,,,-99.99,,2013-04-07 00:21:00,
2013-04-06 20:32:00,44.0,28.0,-100.00,South,180,11.0,16.0,53,-99.99,,,-99.99,,2013-04-07 00:32:00,
2013-04-06 20:42:00,44.0,28.0,-100.00,South,180,11.0,16.0,53,-99.99,,,-99.99,,2013-04-07 00:42:00,
2013-04-06 20:52:00,43.0,27.0,-100.00,South,180,9.0,13.0,53,-99.99,,,-99.99,,2013-04-07 00:52:00,
2013-04-06 21:01:00,43.0,27.0,-100.00,South,180,9.0,13.0,53,-99.99,,,-99.99,,2013-04-07 01:01:00,
2013-04-06 21:21:00,42.0,27.0,-100.00,South,190,7.0,9.0,55,-99.99,,,-99.99,,2013-04-07 01:21:00,
2013-04-06 21:31:00,42.0,27.0,-100.00,South,190,7.0,9.0,55,-99.99,,,-99.99,,2013-04-07 01:31:00,
2013-04-06 21:52:00,42.0,28.0,-100.00,South,180,4.0,7.0,58,-99.99,,,-99.99,,2013-04-07 01:52:00,
2013-04-06 22:02:00,42.0,28.0,-100.00,South,180,4.0,7.0,58,-99.99,,,-99.99,,2013-04-07 02:02:00,
2013-04-06 22:22:00,42.0,28.0,-100.00,South,170,7.0,9.0,58,-99.99,,,-99.99,,2013-04-07 02:22:00,
2013-04-06 22:32:00,42.0,28.0,-100.00,South,170,7.0,9.0,58,-99.99,,,-99.99,,2013-04-07 02:32:00,
2013-04-06 22:42:00,41.0,28.0,-100.00,South,190,4.0,7.0,60,-99.99,,,-99.99,,2013-04-07 02:42:00,
2013-04-06 22:51:00,41.0,28.0,-100.00,South,190,4.0,7.0,60,-99.99,,,-99.99,,2013-04-07 02:51:00,
2013-04-06 23:01:00,41.0,28.0,-100.00,South,190,4.0,7.0,60,-99.99,,,-99.99,,2013-04-07 03:01:00,
2013-04-06 23:11:00,41.0,29.0,-100.00,SSW,200,4.0,7.0,61,-99.99,,,-99.99,,2013-04-07 03:11:00,
2013-04-06 23:21:00,41.0,29.0,-100.00,SSW,200,4.0,7.0,61,-99.99,,,-99.99,,2013-04-07 03:21:00,
2013-04-06 23:33:00,41.0,29.0,-100.00,SSW,200,4.0,7.0,61,-99.99,,,-99.99,,2013-04-07 03:33:00,
2013-04-06 23:42:00,41.0,29.0,-100.00,South,190,4.0,7.0,62,-99.99,,,-99.99,,2013-04-07 03:42:00,
2013-04-06 23:52:00,41.0,29.0,-100.00,South,190,4.0,7.0,62,-99.99,,,-99.99,,2013-04-07 03:52:00,